Regional Weather Roundup
Issued by NWS Glasgow, MT

Home | Current Version | Previous Version | Text Only | Print | Product List | Glossary On
Versions: 1 2 3 4 5 6 7 8 9 10 11 12 13 14 15 16 17 18 19 20 21 22 23 24 25 26 27 28 29 30 31 32 33 34 35 36 37 38 39 40 41 42 43 44 45 46 47 48 49 50
000
ASUS45 KGGW 221815
RWRGGW
HOURLY WEATHER ROUNDUP FOR NORTHEAST MONTANA
NATIONAL WEATHER SERVICE GLASGOW MONTANA
1200 PM MDT FRI AUG 22 2014

NOTE: "FAIR" INDICATES FEW OR NO CLOUDS BELOW 12,000 FEET WITH NO
SIGNIFICANT WEATHER AND/OR OBSTRUCTIONS TO VISISBILITY.

NORTHEAST MONTANA


CITY           SKY/WX    TMP DP  RH WIND       PRES   REMARKS
GLASGOW        CLOUDY    61  58  90 E15       30.11S
6HR MIN TEMP:  58; 6HR MAX TEMP:  61; 6HR PCP:  0.09;

PLENTYWOOD       N/A     65  50  58 NE14        N/A
WOLF POINT     LGT RAIN  62  57  83 NE13      30.11F
JORDAN           N/A     66  56  70 E9        30.08S
WINNETT          N/A     61  55  81 E5          N/A
SIDNEY         CLOUDY    66  57  72 NE14      30.10S
GLENDIVE       CLOUDY    64  61  88 NE13      30.10R
MALTA            N/A     61  60  97 NE10        N/A
SCOBEY           N/A     61  53  75 NE6       30.14R

FORT PECK REPORTS


CITY           SKY/WX    TMP DP  RH WIND       PRES   REMARKS
FORT PECK        N/A     60  58  92 NE12        N/A
THE PINES        N/A     63  56  78 NE13G23     N/A

SOUTHEAST MONTANA


CITY           SKY/WX    TMP DP  RH WIND       PRES   REMARKS
BILLINGS       LGT RAIN  57  56  96 NE8       30.09F FOG
MILES CITY     CLOUDY    68  55  63 NE5       30.06F
BAKER          PTSUNNY   67  59  75 NE9       30.08F
LIVINGSTON     PTSUNNY   61  49  64 E6        30.08F

CENTRAL MONTANA


CITY           SKY/WX    TMP DP  RH WIND       PRES   REMARKS
HAVRE          CLOUDY    62  54  74 E15       30.11S
LEWISTOWN      CLOUDY    60  53  77 E9        30.11S
GREAT FALLS    LGT RAIN  54  52  94 N7        30.13S
CUT BANK       CLOUDY    52  49  89 NE16      30.18S
HELENA         CLOUDY    61  50  67 NW5       30.10S
BUTTE          CLOUDY    56  45  66 NE3       30.12S
BOZEMAN        CLOUDY    57  51  80 NW5       30.08F

WESTERN MONTANA


CITY           SKY/WX    TMP DP  RH WIND       PRES   REMARKS
MISSOULA       LGT RAIN  58  55  90 NW6       30.08F
KALISPELL      NOT AVBL

NORTH DAKOTA


CITY           SKY/WX    TMP DP  RH WIND       PRES   REMARKS
WILLISTON      CLOUDY    68  53  58 NE10      30.10S
DICKINSON      LGT RAIN  64  61  90 NE12      30.06S FOG
MINOT          CLOUDY    64  58  80 N10       30.09S
BISMARCK       CLOUDY    75  63  66 CALM      30.04S

SOUTHERN SASKATCHEWAN


CITY           SKY/WX    TMP DP  RH WIND       PRES   REMARKS
REGINA         CLOUDY    64  52  63 NE14      30.18F
MOOSE JAW      CLOUDY    63  54  72 N10       30.20S
ESTEVAN        CLOUDY    64  54  68 NE9       30.14S
SWIFT CURRENT  LGT RAIN  54  54 100 NE13      30.21S FOG



USA.gov is the U.S. government's official web portal to all federal, state and local government web resources and services.